OneWeb SL0603

operational
NORAD ID: 54667 Int'l Des: 2022-166 Owner: ONEWEBN Country: UK Constellation: oneweb
LEOCIRCULARPOLARONEWEB_TYPE

About OneWeb SL0603

Description loading...

Live Position

Loading 3D Globe...

Upcoming Passes

Altitude History

Altitude vs Time

uPlot chart will show altitude changes over time

Two-Line Element Set

1 54667U 22166AB 25352.54429876 .00000015 00000-0 48130-5 0 9994
2 54667 87.9234 279.9755 0001905 79.5839 280.5509 13.21824346147615
Epoch: Dec 18, 2025 • Age: 9 hours

Current Status

Altitude 1188.8 km
Velocity 7.27 km/s
Sub-Earth Point 72.17°N, 139.11°W
Launch Date Dec 8, 2022
Age 3 years
Type internet

Technical Details

Classification Payload
Mass 148.00 kg
Dry Mass 140.00 kg
Total Mass 148.00 kg
Length 1.30 m
Diameter 1.00 m
Span 5.00 m
Shape Trapezoid+2 pan
Manufacturer ONEWUS
Bus Type ARROW
Phase Status In Orbit
Owner/State ONEWEBN/UK

Large Constellations

Loading constellations...